Location: *
(48.8780°N, 19.2358°E)
Time: 07:08:01
(UTC+00:00)

STARLINK-55 - Pass Details

Date: 18 October 2019
Orbit: 548 x 551 km, 53.0° (Epoch: 17 November)

Event Time Altitude Azimuth Distance (km) Brightness Sun altitude
Rises 16:15:19 0° 248° (WSW) 2,710 9.2 -5.2°
Reaches altitude 10° 16:17:33 10° 249° (WSW) 1,819 7.9 -5.5°
Maximum altitude 16:21:42 80° 337° (NNW) 562 3.7 -6.2°
Drops below altitude 10° 16:25:51 10° 65° (ENE) 1,826 5.7 -6.9°
Enters shadow 16:26:19 - 65° (ENE) 2,010 5.9 -7.0°
